Home > Weather > Bremerhaven > Past weeks

Flag for Germany Weather for the Past 2 Weeks in Bremerhaven, Bremen, Germany

Now
34 °F

Passing clouds.


Feels Like: 30 °F
Forecast: 33 / 39 °F
Wind: 5 mph from Southwest

Location: Nordholz

Current Time: Feb 12, 2016 at 6:56:02 AM

Latest Report: Feb 12, 2016 at 5:20 AM


Visibility: N/A

Pressure: 29.56 "Hg

Humidity: 100%

Dew point: 34 °F

Location of BremerhavenLocation

Historic Weather in Bremerhaven — Graph

°F

Bremerhaven Temperature Yesterday

Maximum temperature yesterday: 45 °F (at 2:20 PM)
Minimum temperature yesterday: 37 °F (at 8:00 AM)
Average temperature yesterday: 40 °F

High & Low Weather Summary for the Past Weeks

 TemperatureHumidityPressure
High52 °F (Feb 7, 10:20 AM)100% (Jan 29, 9:20 PM)30.18 "Hg (Jan 29, 9:20 PM)
Low36 °F (Jan 30, 10:20 PM)66% (Feb 2, 10:20 AM)28.85 "Hg (Feb 9, 8:20 PM)
Average43 °F87%29.64 "Hg
* Reported Jan 28 4:20 AM — Feb 12 4:20 AM, Bremerhaven, Weather by CustomWeather, © 2016

Note: Actual official high and low records may vary slightly from our data, if they occured in-between our weather recording intervals... More about our weather records

Advertising

Bremerhaven Weather History for the Previous 24 Hours

 ConditionsComfort  
Time TempWeatherWind HumidityBarometerVisibility
4:20 AM
Fri, Feb 12
37 °FSprinkles. Passing clouds.8 mph93%29.56 "Hg5 mi
3:20 AM37 °FPartly cloudy.7 mph93%29.59 "HgN/A
3:00 AM37 °FSprinkles. Overcast.8 mph93%29.59 "Hg4 mi
2:20 AM37 °FPartly cloudy.9 mph93%29.56 "HgN/A
1:20 AM37 °FPassing clouds.12 mph93%29.56 "HgN/A
12:20 AM37 °FSprinkles. Passing clouds.9 mph93%29.56 "HgN/A
11:20 PM
Thu, Feb 11
37 °FPartly cloudy.12 mph100%29.56 "HgN/A
10:20 PM37 °FPassing clouds.9 mph100%29.56 "HgN/A
9:20 PM37 °FSprinkles. Partly cloudy.14 mph93%29.56 "HgN/A
8:20 PM39 °FSprinkles. Partly cloudy.15 mph93%29.56 "HgN/A
7:20 PM39 °FSprinkles. Passing clouds.9 mph93%29.56 "HgN/A
6:48 PM39 °FPassing clouds.12 mph87%29.56 "HgN/A
6:20 PM39 °FSprinkles. Passing clouds.12 mph87%29.56 "HgN/A
5:20 PM41 °FSprinkles. Partly sunny.16 mph81%29.53 "Hg6 mi
4:20 PM43 °FScattered clouds.14 mph76%29.53 "HgN/A
3:20 PM45 °FScattered clouds.16 mph76%29.53 "HgN/A
2:20 PM45 °FScattered showers. Broken clouds.21 mph76%29.50 "HgN/A
1:20 PM41 °FScattered showers. Broken clouds.14 mph87%29.50 "HgN/A
12:20 PM43 °FScattered showers. Broken clouds.22 mph81%29.50 "HgN/A
11:20 AM39 °FSprinkles. Broken clouds.16 mph93%29.50 "Hg4 mi
10:20 AM39 °FLight rain. Partly sunny.14 mph93%29.47 "Hg5 mi
9:20 AM37 °FSprinkles. Partly sunny.13 mph93%29.47 "HgN/A
9:00 AM39 °FSprinkles. Broken clouds.17 mph93%29.47 "HgN/A
8:20 AM37 °FSprinkles. Broken clouds.14 mph93%29.45 "Hg5 mi
8:00 AM37 °FSprinkles. Partly sunny.15 mph93%29.45 "Hg5 mi
7:20 AM41 °FPassing clouds.16 mph87%29.45 "HgN/A
6:50 AM39 °FLight rain. Passing clouds.15 mph93%29.45 "Hg6 mi
6:20 AM41 °FLight rain. Partly cloudy.15 mph87%29.42 "HgN/A
Weather by CustomWeather, © 2016

See weather overviewHow to use our weather pages